Regional Weather Roundup
Issued by NWS

Home | Current Version | Previous Version | Graphics & Text | Print | Product List | Glossary On
Versions: 1 2 3 4 5 6 7 8 9 10 11 12 13 14 15 16 17 18 19 20 21 22 23 24 25 26 27 28 29 30 31 32 33 34 35 36 37 38 39 40 41 42 43 44 45 46 47 48 49 50
570
ASUS43 KIND 281209
RWRIN

WEATHER ROUNDUP FOR INDIANA
NATIONAL WEATHER SERVICE INDIANAPOLIS IN
700 AM EST TUE FEB 28 2017

NOTE: "FAIR" INDICATES FEW OR NO CLOUDS BELOW 12,000 FEET WITH NO
SIGNIFICANT WEATHER AND/OR OBSTRUCTIONS TO VISIBILITY.

* - STATION DOES NOT REPORT WEATHER SUCH AS PRECIPITATION OR FOG.

+ - STATION NOT QUALITY CONTROLLED BY THE NATIONAL WEATHER SERVICE.
    USE DATA WITH CAUTION...ESPECIALLY DEWPOINT AND RELATIVE
    HUMIDITY OBSERVATIONS.

INZ001>003-010>013-019-020-281300-
NORTHWEST INDIANA

CITY           SKY/WX    TMP DP  RH WIND       PRES   REMARKS
GARY /AIRPORT/ CLOUDY    50  45  81 S13       29.90R
KNOX *+        CLOUDY    45  32  61 S16       29.93S
LA PORTE +     CLOUDY    46  44  93 S8        29.93S
6HR MIN TEMP:  42; 6HR MAX TEMP:  46; 6HR PCP:  0.08;

MICHIGAN CITY+ CLOUDY    46  46 100 S7        29.92S
MONTICELLO +   CLOUDY    46  44  94 SE6       29.95S
6HR MIN TEMP:  44; 6HR MAX TEMP:  46; 6HR PCP:  0.16;

RENSSELAER +   CLOUDY    45  45 100 SE7       29.93F
VALPARAISO     CLOUDY    48  45  89 S14G21    29.93S
6HR MIN TEMP:  44; 6HR MAX TEMP:  48; 6HR PCP:  0.06;


$$

LMZ046-743>745-281300-
SOUTHERN LAKE MICHIGAN

STATION/POSITION TIME  TEMP    WIND        PRES    WAVE
                       AIR SEA DIR/SP/G            HT
                 (UTC) (F)     (DEG/KT/KT) (MB)    (FT)
BURNS HARBOR     1140   49     170/ 13/ 24 1013.2R
MICHIGAN CITY    1140   48     140/ 16/ 21   N/A

$$

INZ004-005-014>016-021>024-281300-
NORTH CENTRAL INDIANA

CITY           SKY/WX    TMP DP  RH WIND       PRES   REMARKS
ELKHART        CLOUDY    45  43  93 S12       29.95
GOSHEN         CLOUDY    45  41  86 SE12      29.96F
6HR MIN TEMP:  42; 6HR MAX TEMP:  45; 6HR PCP:  0.14;

LOGANSPORT +   CLOUDY    45  43  93 SE10      29.98S
PERU/GRISSOM   LGT RAIN  46  46 100 S12       29.97R
6HR MIN TEMP:  42; 6HR MAX TEMP:  46; 6HR PCP:  0.19;

ROCHESTER +    CLOUDY    46  45  93 SE8       29.97F
SOUTH BEND     CLOUDY    45  43  93 S12       29.94F
6HR MIN TEMP:  43; 6HR MAX TEMP:  45; 6HR PCP:  0.11;

WARSAW +       DRIZZLE   45  43  93 SE8       29.98F

$$

INZ006>009-017-018-025>027-281300-
NORTHEAST INDIANA

CITY           SKY/WX    TMP DP  RH WIND       PRES   REMARKS
ANGOLA *+      CLOUDY    41  34  75 SE8       30.00F
AUBURN +       RAIN      41  39  93 CALM      30.04F
FORT WAYNE     RAIN      44  42  93 E6        30.02S FOG
6HR MIN TEMP:  41; 6HR MAX TEMP:  44; 6HR PCP:  0.11;

HUNTINGTON +   RAIN      44  43  95 SE6       30.00F
6HR MIN TEMP:  41; 6HR MAX TEMP:  44; 6HR PCP:  0.12;

KENDALLVILLE + DRIZZLE   42  41  98 SE13      29.99F

$$

INZ028-029-035-036-043>045-051>053-281300-
WEST CENTRAL INDIANA

CITY           SKY/WX    TMP DP  RH WIND       PRES   REMARKS
GREENCASTLE +  CLOUDY    46  46 100 S8        29.98S
LAFAYETTE      CLOUDY    47  46  97 S5        29.95S
6HR MIN TEMP:  45; 6HR MAX TEMP:  47; 6HR PCP:  0.15;

TERRE HAUTE    CLOUDY    51  48  89 S12       29.97F
6HR MIN TEMP:  48; 6HR MAX TEMP:  52; 6HR PCP:  0.17;


$$

INZ030>032-037>040-046>048-054>057-064-065-281300-
CENTRAL INDIANA

CITY           SKY/WX    TMP DP  RH WIND       PRES   REMARKS
CP ATTERBURY + RAIN      46  45  93 SE12G17   30.01F
COLUMBUS       LGT RAIN  46  46 100 S15       30.05  FOG
FRANKFORT +    CLOUDY    49  47  92 S12G18    29.98R
6HR MIN TEMP:  46; 6HR MAX TEMP:  49; 6HR PCP:  0.05;

GREENWOOD *+   CLOUDY    47  47 100 SE9       30.01F
6HR MIN TEMP:  44; 6HR MAX TEMP:  47;

INDIANAPOLIS   MOCLDY    46  45  96 SE10      29.99F
6HR MIN TEMP:  45; 6HR MAX TEMP:  46; 6HR PCP:  0.09;

-EAGLE CREEK   CLOUDY    47  44  90 SE7       29.99S
6HR MIN TEMP:  46; 6HR MAX TEMP:  47; 6HR PCP:  0.08;

KOKOMO +       CLOUDY    46  44  93 S15       29.98F
6HR MIN TEMP:  43; 6HR MAX TEMP:  47; 6HR PCP:  0.11;

MARION +       LGT RAIN  46  44  93 S12       30.00F
MT COMFORT *+  CLOUDY    46  45  93 S12G20    30.01S
SHELBYVILLE    RAIN      48  45  89 SE12      30.03S
6HR MIN TEMP:  47; 6HR MAX TEMP:  49; 6HR PCP:  0.26;

ZIONSVILLE +   CLOUDY    45  44  96 S12       29.99S
6HR MIN TEMP:  44; 6HR MAX TEMP:  46; 6HR PCP:  0.11;


$$

INZ033-034-041-042-049-050-058-059-281300-
EAST CENTRAL INDIANA

CITY           SKY/WX    TMP DP  RH WIND       PRES   REMARKS
MUNCIE         LGT RAIN  48  44  86 S9        30.01F
6HR MIN TEMP:  46; 6HR MAX TEMP:  49; 6HR PCP:  0.04;


$$

INZ060-061-067>069-081>083-085>088-281300-
SOUTHWEST INDIANA

CITY           SKY/WX    TMP DP  RH WIND       PRES   REMARKS
EVANSVILLE     CLOUDY    53  49  86 S9        30.00S
6HR MIN TEMP:  52; 6HR MAX TEMP:  54; 6HR PCP:  0.04;

HUNTINGBURG *+ CLOUDY    52  48  87 SE8       30.01F
6HR MIN TEMP:  52; 6HR MAX TEMP:  52; 6HR PCP: 10.00;

WASHINGTON +   TSTM      50  48  94 CALM      30.02R
6HR MIN TEMP:  49; 6HR MAX TEMP:  51; 6HR PCP:  0.21;


$$

INZ062-063-066-070>080-084-089>092-281300-
SOUTH CENTRAL AND SOUTHEAST INDIANA

CITY           SKY/WX    TMP DP  RH WIND       PRES   REMARKS
BEDFORD +      CLOUDY    48  46  93 NE3       30.03S THUNDER
BLOOMINGTON    LGT RAIN  49  47  93 S6        30.00S
6HR MIN TEMP:  47; 6HR MAX TEMP:  51; 6HR PCP:  0.24;

MADISON *+     CLOUDY    46  45  93 E8        30.06F
NORTH VERNON + LGT RAIN N/A N/A N/A SE7       30.07F
SEYMOUR +      CLOUDY    48  48 100 SE6       30.05S THUNDER

$$





USA.gov is the U.S. government's official web portal to all federal, state and local government web resources and services.